Theta_e
325 325 324 324 322 321 321 320 319 319 320 320 320 320 320 319 319 323 314 318 319 329 326 320 321 320 322 323 327 328 317 313 314 316 314 316 311 313 314 311 311 312 313 315 314
324 325 325 324 322 321 321 320 319 319 320 320 320 320 319 318 323 315 323 327 330 330 322 320 318 320 321 319 321 321 315 314 320 321 316 315 314 312 311 310 309 310 313 313 313
323 323 324 323 323 322 321 319 319 319 319 319 319 319 318 320 318 315 326 330 330 326 322 321 320 321 317 320 317 317 317 319 319 319 319 316 313 313 311 308 310 308 310 312 312
320 321 321 322 323 322 320 318 319 319 319 319 319 319 318 324 306 319 328 329 328 322 322 320 320 317 316 314 316 313 317 318 317 318 316 313 313 311 309 311 314 313 313 313 311
318 319 320 321 321 321 320 318 318 318 318 319 319 319 321 314 314 324 326 327 321 322 320 320 318 318 314 314 316 314 312 314 315 315 315 312 311 309 309 312 314 313 312 311 310
317 317 318 318 319 319 319 318 317 317 317 318 319 317 316 308 321 324 323 321 321 324 321 321 319 320 314 311 313 314 313 312 313 311 311 309 307 309 309 312 311 310 310 310 309
317 317 317 317 317 318 319 318 316 316 317 318 319 318 312 310 322 324 322 319 319 319 320 322 321 318 316 310 314 313 309 310 311 311 307 311 304 305 310 311 309 309 310 309 308
317 316 316 315 316 317 317 316 315 316 317 317 317 317 308 317 322 321 319 318 320 323 322 323 323 318 315 315 312 311 311 307 309 309 307 308 304 307 310 309 308 309 309 307 306
317 316 315 315 315 316 316 315 314 315 316 316 318 315 307 320 317 318 318 315 319 321 322 321 321 315 315 311 308 309 305 306 305 309 305 305 305 306 310 309 308 308 308 306 305
317 316 316 315 315 315 314 313 315 316 318 319 316 311 312 310 316 316 318 317 316 318 317 317 316 312 313 310 302 304 304 306 305 307 306 305 305 305 308 309 309 308 308 306 304
316 316 315 315 315 315 314 322 317 315 317 309 308 308 309 315 317 314 316 316 317 316 310 314 310 307 309 312 308 307 306 305 308 309 306 306 306 306 306 307 308 307 306 306 304
316 316 315 315 315 314 315 314 311 311 309 314 314 313 314 315 309 312 316 311 311 307 311 309 306 310 312 308 308 307 305 304 304 306 306 306 305 309 306 306 308 307 306 306 305
315 315 315 314 313 315 315 312 315 315 310 309 312 311 311 313 309 310 313 312 309 307 308 306 307 311 310 306 305 306 304 303 302 304 305 303 303 306 309 307 307 307 308 307 305
315 314 313 311 312 317 313 315 318 318 304 304 306 310 310 312 307 313 313 312 309 306 307 308 307 308 308 307 308 304 306 303 302 301 298 304 295 302 306 304 304 305 305 307 305
314 314 314 309 319 315 312 318 321 318 292 302 306 314 310 307 308 307 312 311 307 306 307 304 302 305 306 306 308 304 304 304 304 302 299 299 297 301 300 300 302 304 305 306 306
314 314 315 317 319 315 320 320 317 300 290 299 305 304 304 306 305 307 308 312 310 306 306 303 305 304 304 302 304 303 302 301 302 301 294 296 296 298 300 301 302 305 305 305 304
314 314 316 320 314 320 323 315 299 293 301 298 299 302 303 302 303 304 304 305 303 300 301 301 302 303 304 301 302 302 300 296 293 292 292 295 294 298 301 301 302 302 303 305 305
308 312 316 323 325 325 320 305 292 295 296 301 300 301 300 302 302 302 302 302 305 305 303 299 296 301 303 302 301 300 301 296 289 290 293 294 292 299 301 301 302 303 305 305 304
312 319 321 323 322 321 312 297 296 296 299 299 300 298 299 300 301 301 302 301 304 306 300 299 299 300 300 302 303 299 296 301 295 294 291 296 297 298 299 300 300 301 303 303 303
315 314 315 321 321 319 306 296 299 301 302 301 295 299 296 299 298 299 300 302 302 305 308 303 297 298 298 301 301 301 303 295 296 288 288 293 294 297 298 300 300 299 301 301 302
313 305 316 320 321 309 298 299 301 303 303 300 298 297 298 298 299 299 298 301 302 302 306 305 302 297 298 298 300 297 297 298 298 296 290 289 295 301 301 302 302 302 301 301 301
313 300 317 320 302 305 300 302 300 303 305 303 302 301 299 299 299 298 298 300 302 303 300 305 303 298 298 299 300 302 300 299 293 293 294 293 293 301 304 304 304 303 301 302 302
306 307 317 316 296 298 301 301 303 302 302 302 300 302 302 299 297 299 300 302 302 301 302 304 300 295 295 297 299 296 298 299 299 297 294 290 295 302 302 302 302 302 300 300 300
306 300 307 309 306 300 298 297 298 303 302 303 302 303 300 298 300 297 299 302 302 301 301 303 302 298 294 297 300 295 297 298 298 294 294 294 296 298 300 300 300 301 300 300 298
309 302 305 297 300 301 300 298 296 296 301 302 300 300 300 297 298 298 300 302 303 300 303 303 298 300 299 298 297 297 297 296 295 297 293 297 296 298 299 300 301 301 299 297 296
306 304 306 304 303 300 297 297 296 297 298 296 297 299 301 298 300 298 301 301 300 302 300 302 296 298 296 297 297 295 297 297 297 297 296 295 295 299 299 300 299 298 297 295 295
310 309 306 297 302 298 299 298 298 301 301 301 301 301 300 301 304 305 305 307 304 301 299 298 298 296 292 295 295 293 297 297 296 297 297 293 298 300 298 298 299 298 297 296 295
Wind_Speed
10 11 11 12 13 13 14 15 15 16 17 19 19 19 19 18 19 7 1 5 5 5 2 3 5 6 5 4 2 2 5 8 9 15 13 18 11 6 4 12 4 2 9 20 18
10 11 12 12 13 13 14 14 15 17 17 18 19 19 19 15 7 3 3 7 6 7 6 3 11 6 5 4 3 4 5 5 7 8 18 19 14 13 9 13 9 15 19 20 17
9 11 12 12 13 13 14 15 15 17 17 18 19 21 18 13 7 3 3 7 5 6 2 1 5 3 4 3 4 5 3 9 6 5 19 16 13 8 13 9 15 24 23 19 15
10 11 11 12 14 14 14 15 16 17 17 18 19 21 21 5 3 5 7 8 6 4 3 5 6 5 4 5 3 8 6 6 11 12 14 16 13 13 2 7 17 20 20 17 14
10 10 11 12 13 15 15 16 16 17 17 17 18 17 10 6 2 4 8 5 2 3 2 4 8 5 8 8 10 14 10 10 10 11 12 12 11 8 10 15 19 19 17 16 12
10 11 11 12 13 15 16 17 17 17 17 16 15 15 5 8 3 4 8 4 3 10 3 3 5 11 12 6 5 10 14 14 12 12 10 12 9 6 10 17 19 18 17 14 13
9 10 11 12 14 16 17 18 19 18 17 15 10 5 5 8 3 8 5 3 3 3 8 8 7 1 9 13 14 19 16 13 10 9 5 10 9 9 20 19 19 17 15 14 12
9 10 11 12 14 16 18 19 21 19 16 7 3 4 7 1 8 8 3 4 5 9 15 12 14 13 6 19 9 10 9 10 10 10 6 7 4 11 21 21 20 18 15 13 12
10 11 11 12 13 17 19 23 23 13 8 5 4 5 4 3 5 2 4 3 9 9 9 7 7 9 15 15 10 7 7 9 11 13 7 13 1 11 20 20 19 17 16 14 12
10 10 10 12 14 16 21 22 11 6 5 4 2 6 5 1 4 5 1 3 4 13 8 4 5 8 11 12 7 11 9 11 13 17 15 15 16 10 18 20 19 18 16 15 14
10 10 11 12 13 16 15 5 5 6 5 6 2 4 2 4 3 5 1 5 7 11 9 8 9 12 17 15 5 3 8 9 9 7 15 18 16 15 17 19 20 19 18 16 15
9 9 10 11 13 17 8 5 4 4 8 6 10 10 8 4 4 6 4 7 9 12 7 7 13 8 8 5 6 7 7 6 4 5 13 10 18 15 19 22 21 20 19 18 16
9 7 9 11 13 7 5 7 5 6 6 4 6 7 4 10 5 6 7 3 8 10 14 12 3 6 13 11 9 7 8 4 6 7 11 6 16 18 15 19 18 18 17 18 18
7 6 8 12 4 3 3 6 4 6 5 6 6 4 7 5 6 1 2 3 5 10 8 9 5 12 13 15 13 12 5 5 8 10 5 8 6 7 8 13 16 18 18 18 18
6 5 6 7 6 2 5 9 1 4 5 4 4 3 4 9 4 5 1 5 6 5 6 4 8 11 11 7 10 1 4 4 7 8 5 10 8 1 3 9 14 17 17 18 17
5 4 5 5 3 4 9 5 4 5 5 1 0 4 8 10 3 5 5 3 2 4 1 4 1 3 2 6 3 14 8 6 5 5 9 5 8 3 3 2 3 9 15 17 18
4 3 5 2 2 7 9 4 5 5 2 4 2 1 9 8 8 6 10 10 9 8 9 5 6 4 7 10 9 7 9 6 7 6 4 4 7 8 3 2 2 1 10 16 18
4 4 2 3 7 8 4 4 6 1 4 5 4 2 6 5 6 7 7 10 8 8 3 10 8 11 8 5 8 15 9 6 7 5 1 3 8 3 5 2 2 2 9 15 17
8 3 2 2 5 5 5 7 1 1 4 7 4 3 4 4 3 7 11 12 7 12 9 6 4 4 1 3 3 7 9 5 6 1 6 7 5 7 3 4 5 7 11 15 17
4 4 3 6 4 5 5 4 2 1 5 3 3 6 4 2 5 4 6 1 11 10 7 4 5 3 5 4 3 6 9 5 5 6 8 5 7 2 7 8 9 10 11 13 16
4 5 4 5 4 4 7 6 3 1 4 5 4 1 4 5 5 3 1 2 3 3 7 7 7 7 5 11 11 7 9 5 5 5 6 7 2 4 6 4 7 9 11 15 17
3 4 3 3 6 2 7 4 0 2 2 4 2 7 5 5 3 3 5 6 9 6 5 3 5 10 11 2 5 9 12 14 8 7 3 5 4 5 3 3 2 10 12 14 16
4 4 3 4 7 7 3 6 1 2 2 2 2 6 4 5 1 4 7 5 6 4 4 3 6 11 6 5 5 8 13 13 8 2 9 7 1 5 5 4 4 10 13 15 16
3 5 3 3 2 7 10 8 9 4 5 3 4 2 2 2 3 3 7 6 7 3 4 3 7 12 13 11 3 6 13 16 15 9 10 13 7 8 6 4 7 10 13 15 16
1 2 2 7 8 6 9 7 9 7 10 5 7 7 8 5 8 3 5 12 5 2 1 3 8 7 8 6 5 7 9 14 18 19 10 8 9 4 3 3 8 11 14 16 16
3 3 3 3 9 10 6 9 10 11 12 7 10 6 6 8 11 15 13 7 5 2 2 2 7 3 6 4 6 10 10 11 16 15 14 8 8 4 5 7 10 12 15 16 16
2 1 4 2 8 9 9 9 12 6 3 4 2 6 6 4 5 6 7 7 5 5 4 3 4 4 13 3 4 10 15 15 9 9 11 10 3 10 7 8 10 12 13 14 15
Wind_Direction
343 345 342 343 339 338 338 336 335 333 335 331 328 326 328 330 308 200 190 1 314 337 229 165 168 138 183 98 81 230 202 172 164 174 139 148 144 113 130 139 104 88 144 130 140
343 341 339 340 332 336 333 332 332 331 332 330 326 324 326 331 280 182 73 325 296 275 266 219 165 179 133 119 70 278 252 127 134 106 151 162 153 142 149 141 115 116 111 130 149
340 338 338 336 330 329 329 328 328 329 330 327 325 323 324 315 249 120 14 317 289 240 347 83 164 225 130 91 32 29 31 127 126 140 147 149 139 143 143 156 153 148 145 150 153
328 331 334 334 330 326 325 322 323 325 324 324 323 323 318 255 227 109 345 311 266 238 200 153 180 188 126 107 62 116 75 102 121 131 141 151 134 141 76 111 144 146 148 152 157
325 323 326 327 327 322 321 319 318 318 318 321 321 324 320 249 239 72 317 291 251 263 281 191 200 165 121 111 91 103 105 104 124 133 122 138 143 126 110 123 138 144 153 157 152
321 321 320 322 321 319 318 315 312 311 312 315 315 312 292 256 27 340 322 286 42 51 103 213 136 106 88 73 7 119 115 119 136 127 139 142 141 166 138 143 149 159 161 159 153
314 319 319 318 318 316 315 311 308 306 307 310 305 286 261 265 333 317 293 351 20 8 92 85 107 250 117 97 119 121 115 124 141 147 138 146 180 206 154 165 165 170 166 160 152
309 314 318 316 314 313 312 307 304 302 305 295 286 239 274 219 322 281 220 133 100 80 97 95 99 87 94 126 134 131 154 165 168 180 149 214 148 154 165 172 179 176 171 167 161
304 310 318 314 312 311 310 304 299 293 289 244 215 245 265 290 237 339 294 152 122 120 99 118 79 99 146 142 139 200 188 212 173 204 165 217 69 158 176 185 185 185 179 175 158
297 307 313 314 313 313 312 294 289 281 211 226 255 245 218 90 333 322 247 221 155 145 148 149 121 151 176 199 222 185 200 198 199 190 208 208 244 171 188 195 195 191 188 182 176
295 307 311 314 315 314 322 310 258 196 243 280 68 301 287 333 201 194 175 183 163 195 191 186 191 204 191 214 331 230 214 198 198 158 203 228 245 190 197 207 203 200 195 192 185
292 302 307 313 316 312 288 54 43 338 302 240 253 263 264 300 259 200 201 218 205 209 165 185 228 219 193 189 209 196 195 196 125 175 214 236 255 245 198 213 212 205 200 197 182
286 299 309 314 316 299 26 56 336 180 262 250 228 247 222 193 225 202 208 200 221 208 207 231 75 165 173 182 184 206 233 193 305 163 213 285 261 244 211 216 217 216 208 200 191
279 300 316 312 298 343 95 349 341 214 268 173 196 194 178 213 223 209 207 263 194 237 211 241 134 181 193 213 218 240 199 223 172 192 280 201 291 244 231 207 216 214 207 201 192
267 290 317 354 329 256 11 333 121 228 248 66 141 60 156 203 114 143 118 198 236 164 225 130 178 186 201 212 198 332 144 169 194 231 265 188 259 176 142 226 224 210 207 203 191
241 268 294 209 245 1 326 316 212 230 238 88 76 178 171 196 160 129 173 114 59 164 163 61 91 229 54 87 228 139 131 132 187 241 250 294 246 257 182 100 99 204 198 195 187
212 245 261 310 12 328 312 214 193 244 11 18 355 287 214 184 193 208 188 189 206 198 200 169 165 133 169 118 139 202 197 246 223 207 285 146 223 285 133 86 339 197 182 186 180
149 213 155 284 315 311 273 195 217 77 286 351 328 265 218 181 212 200 209 209 211 230 234 217 194 181 167 245 209 207 237 254 278 258 345 176 240 92 103 45 336 213 164 168 173
175 169 213 38 309 283 231 207 223 23 346 329 302 255 190 196 311 225 235 245 236 211 232 214 203 139 178 178 244 164 220 350 274 196 260 250 221 154 169 134 122 131 152 165 171
175 186 108 329 297 257 210 188 165 21 333 298 333 9 21 40 224 207 200 21 236 223 239 211 227 208 132 175 115 264 129 188 214 261 259 192 265 295 164 163 157 162 165 165 167
196 187 49 301 260 208 206 178 174 63 353 7 23 47 51 15 320 253 334 119 341 218 251 216 243 137 178 209 212 171 205 225 287 276 279 288 276 79 124 140 171 163 166 169 169
173 177 33 273 179 232 197 183 59 205 5 36 57 41 42 10 340 310 329 351 359 300 227 194 272 233 221 84 297 267 246 212 237 206 243 306 291 143 118 84 147 153 165 167 166
136 83 94 283 194 188 144 176 258 217 216 9 113 21 18 31 226 28 358 16 359 308 336 185 224 242 202 188 191 232 214 226 247 264 223 258 266 152 142 113 123 152 160 161 158
182 131 118 243 11 188 177 188 207 210 275 278 294 285 312 334 13 347 2 360 322 275 13 290 259 255 264 312 23 208 216 216 219 238 241 237 245 187 201 187 154 153 158 157 163
244 122 104 177 194 180 191 180 187 204 220 237 229 252 277 275 304 275 324 339 350 33 298 278 269 264 267 273 258 274 252 218 220 232 226 269 230 132 120 152 160 152 154 158 164
154 160 180 114 162 180 176 191 197 222 240 215 239 238 271 275 270 291 308 301 321 12 317 304 271 304 272 266 272 260 252 245 236 250 254 252 260 91 105 123 146 156 162 166 168
110 120 274 171 160 179 207 197 203 148 180 243 269 246 233 357 348 336 296 290 303 310 318 281 290 261 270 301 284 263 240 227 223 225 240 236 291 153 153 159 159 160 169 168 166